Location: Newark
(45.4422°N, 16.2769°E)
Time: 07:07:47
(UTC+00:00)

Vanguard 1 Rocket - All Passes

Search period start: 07 December 2019 00:00
Search period end: 17 December 2019 00:00
Orbit: 650 x 4226 km, 34.3° (Epoch: 06 December)

Date Brightness Start Highest point End Pass type
(mag) Time Alt. Az. Time Alt. Az. Time Alt. Az.
07 Dec - 02:20:58 10° SW 02:22:02 11° SW 02:23:03 10° SSW night (unlit)
07 Dec - 17:43:48 10° S 17:54:19 17° SSE 18:02:09 10° ESE visible
07 Dec - 20:07:59 10° SW 20:21:39 33° SSE 20:29:35 10° ESE visible
07 Dec - 22:37:17 10° WSW 22:47:32 38° S 22:53:24 10° ESE visible
08 Dec - 01:06:42 10° WSW 01:11:42 20° SSW 01:15:26 10° SSE night (unlit)
08 Dec - 16:37:13 10° SSE 16:41:37 11° SE 16:45:35 10° SE visible
08 Dec - 18:54:48 10° SSW 19:09:29 29° SSE 19:18:34 10° ESE visible
08 Dec - 21:23:20 10° WSW 21:36:12 40° S 21:43:15 10° ESE visible
08 Dec - 23:53:19 10° WSW 00:01:11 31° SSW 00:06:08 10° SE night (unlit)
09 Dec - 17:42:39 10° SSW 17:56:56 23° SSE 18:06:41 10° ESE visible
09 Dec - 20:09:15 10° SW 20:24:24 39° S 20:32:50 10° ESE visible
09 Dec - 22:39:31 10° WSW 22:50:18 40° S 22:56:22 10° ESE visible
10 Dec - 01:09:44 10° WSW 01:14:16 17° SSW 01:17:44 10° S night (unlit)
10 Dec - 16:32:32 10° S 16:44:06 17° SE 16:53:08 10° ESE visible
10 Dec - 18:55:26 10° SW 19:12:08 35° SSE 19:21:59 10° E visible
10 Dec - 21:25:16 10° WSW 21:38:57 44° S 21:46:18 10° ESE visible
10 Dec - 23:55:54 10° W 00:03:50 29° SSW 00:08:51 10° SE night (unlit)
11 Dec - 17:42:25 10° SSW 17:59:27 29° SSE 18:10:30 10° E visible
11 Dec - 20:10:45 10° SW 20:27:07 44° S 20:35:57 10° ESE visible
11 Dec - 22:41:49 10° WSW 22:53:00 39° SSW 22:59:16 10° SE visible
12 Dec - 01:13:05 10° WSW 01:16:43 14° SW 01:19:39 10° S night (unlit)
12 Dec - 16:30:53 10° S 16:46:30 23° SE 16:57:54 10° ESE visible
12 Dec - 18:56:24 10° SW 19:14:45 41° SSE 19:25:13 10° E visible
12 Dec - 21:27:17 10° WSW 21:41:40 46° S 21:49:18 10° ESE visible
12 Dec - 23:58:33 10° W 00:06:23 26° SSW 00:11:25 10° SSE night (unlit)
13 Dec - 15:22:08 10° SSE 15:33:27 15° SE 15:42:55 10° ESE visible
13 Dec - 17:42:45 10° SSW 18:01:56 35° SSE 18:13:57 10° E visible
13 Dec - 20:12:26 10° WSW 20:29:47 48° S 20:39:00 10° ESE visible
13 Dec - 22:44:10 10° W 22:55:38 38° SSW 23:02:04 10° SE visible
14 Dec - 01:17:18 10° WSW 01:19:03 11° SW 01:20:38 10° SSW night (unlit)
14 Dec - 16:30:19 10° SSW 16:48:49 29° SSE 17:01:49 10° E visible
14 Dec - 18:57:40 10° SW 19:17:20 46° SSE 19:28:19 10° E visible
14 Dec - 21:29:23 10° WSW 21:44:20 47° S 21:52:13 10° ESE visible
15 Dec - 00:01:19 10° W 00:08:50 23° SW 00:13:48 10° SSE night (unlit)
15 Dec - 15:19:49 10° S 15:35:36 21° SE 15:48:11 10° E visible
15 Dec - 17:43:30 10° SW 18:04:23 41° SSE 18:17:10 10° E visible
15 Dec - 20:14:15 10° WSW 20:32:24 51° S 20:41:58 10° ESE visible
15 Dec - 22:46:35 10° W 22:58:10 35° SSW 23:04:47 10° SE visible
16 Dec - 14:13:26 10° SSE 14:22:32 13° SE 14:30:49 10° ESE daylight
16 Dec - 16:30:26 10° SSW 16:51:05 35° SSE 17:05:18 10° E visible
16 Dec - 18:59:09 10° WSW 19:19:52 51° S 19:31:20 10° E visible
16 Dec - 21:31:32 10° W 21:46:55 46° SSW 21:55:04 10° SE visible
